SCP
0 0 0 0 0 0 0 0 0 0 0 0 0 0 0 0 0 0 0 0 0 0 0 0 0 0 0 0 0 0 0 0 0 0 0 0 0 0 0 0 0 0 0 0
0 0 0 0 0 0 0 0 0 0 0 0 0 0 0 0 0 0 0 0 0 0 0 0 0 0 0 0 0 0 0 0 0 0 0 0 0 0 0 0 0 0 0 0
0 0 0 0 0 0 0 0 0 0 0 0 0 0 0 0 0 0 0 0 0 0 0 0 0 0 0 0 0 0 0 0 0 0 0 0 0 0 0 0 0 0 0 0
0 0 0 0 0 0 0 0 0 0 0 0 0 0 0 0 0 0 0 0 0 0 0 0 0 0 0 0 0 0 0 0 0 0 0 0 0 0 0 0 0 0 0 0
0 0 0 0 0 0 0 0 0 0 0 0 0 0 0 0 0 0 0 0 0 0 0 0 0 0 0 0 0 0 0 0 0 0 0 0 0 0 0 0 0 0 0 0
0 0 0 0 0 0 0 0 0 0 0 0 0 0 0 0 0 0 0 0 0 0 0 0 0 0 0 0 0 0 0 0 0 0 0 0 0 0 0 0 0 0 0 0
0 0 0 0 0 0 0 0 0 0 0 0 0 0 0 0 0 0 0 0 0 0 0 0 0 0 0 0 0 0 0 0 0 0 0 0 0 0 0 0 0 0 0 0
0 0 0 0 0 0 0 0 0 0 0 0 0 0 0 0 0 0 0 0 0 0 0 0 0 0 0 0 0 0 0 0 0 0 0 0 0 0 0 0 0 0 0 0
0 0 0 0 0 0 0 0 0 0 0 0 0 0 0 0 0 0 0 0 0 0 0 0 0 0 0 0 0 0 0 0 0 0 0 0 0 0 0 0 0 0 0 0
0 0 0 0 0 0 0 0 0 0 0 0 0 0 0 0 0 0 0 0 0 0 0 0 0 0 0 0 0 0 0 0 0 0 0 0 0 0 0 0 0 0 0 0
0 0 0 0 0 0 0 0 0 0 0 0 0 0 0 0 0 0 0 0 0 0 0 0 0 0 0 0 0 0 0 0 0 0 0 0 0 0 0 0 0 0 0 0
0 0 0 0 0 0 0 0 0 0 0 0 0 0 0 0 0 0 0 0 0 0 0 0 0 0 0 0 0 0 0 0 0 0 0 0 0 0 0 0 0 0 0 0
0 0 0 0 0 0 0 0 0 0 0 0 0 0 0 0 0 0 0 0 0 0 0 0 0 0 0 0 0 0 0 0 0 0 0 0 0 0 0 0 0 0 0 0
0 0 0 0 0 0 0 0 0 0 0 0 0 0 0 0 0 0 0 0 0 0 0 0 0 0 0 0 0 0 0 0 0 0 0 0 0 0 0 0 0 0 0 0
0 0 0 0 0 0 0 0 0 0 0 0 0 0 0 0 0 0 0 0 0 0 0 0 0 0 0 0 0 0 0 0 0 0 0 0 0 0 0 0 0 0 0 0
0 0 0 0 0 0 0 0 0 0 0 0 0 0 0 0 0 0 0 0 0 0 0 0 0 0 0 0 0 0 0 0 0 0 0 0 0 0 0 0 0 0 0 0
0 0 0 0 0 0 0 0 0 0 0 0 0 0 0 0 0 0 0 0 0 0 0 0 0 0 0 0 0 0 0 0 0 0 0 0 0 0 0 0 0 0 0 0
0 0 0 0 0 0 0 0 0 0 0 0 0 0 0 0 0 0 0 0 0 0 0 0 0 0 0 0 0 0 0 0 0 0 0 0 0 0 0 0 0 0 0 0
0 0 0 0 0 0 0 0 0 0 0 0 0 0 0 0 0 0 0 0 0 0 0 0 0 0 0 0 0 0 0 0 0 0 0 0 0 0 0 0 0 0 0 0
0 0 0 0 0 0 0 0 0 0 0 0 0 0 0 0 0 0 0 0 0 0 0 0 0 0 0 0 0 0 0 0 0 0 0 0 0 0 0 0 0 0 0 0
0 0 0 0 0 0 0 0 0 0 0 0 0 0 0 0 0 0 0 0 0 0 0 0 0 0 0 0 0 0 0 0 0 0 0 0 0 0 0 0 0 0 0 0
0 0 0 0 0 0 0 0 0 0 0 0 0 0 0 0 0 0 0 0 0 0 0 0 0 0 0 0 0 0 0 0 0 0 0 0 0 0 0 0 0 0 0 0
0 0 0 0 0 0 0 0 0 0 0 0 0 0 0 0 0 0 0 0 0 0 0 0 0 0 0 0 0 0 0 0 0 0 0 0 0 0 0 0 0 0 0 0
0 0 0 0 0 0 0 0 0 0 0 0 0 0 0 0 0 0 0 0 0 0 0 0 0 0 0 0 0 0 0 0 0 0 0 0 0 0 0 0 0 0 0 0
0 0 0 0 0 0 0 0 0 0 0 0 0 0 0 0 0 0 0 0 0 0 0 0 0 0 0 0 0 0 0 0 0 0 0 0 0 0 0 0 0 0 0 0
0 0 0 0 0 0 0 0 0 0 0 0 0 0 0 0 0 0 0 0 0 0 0 0 0 0 0 0 0 0 0 0 0 0 0 0 0 0 0 0 0 0 0 0
0 0 0 0 0 0 0 0 0 0 0 0 0 0 0 0 0 0 0 0 0 0 0 0 0 0 0 0 0 0 0 0 0 0 0 0 0 0 0 0 0 0 0 0
Wind_Speed
6 5 4 6 7 7 8 8 9 9 10 12 8 6 5 4 3 3 4 3 3 3 2 3 2 2 2 2 2 2 2 2 3 2 2 1 1 1 1 1 2 2 2 2
5 4 4 7 9 9 10 9 10 10 14 11 6 4 4 4 4 5 5 4 4 3 3 3 3 3 2 2 2 2 2 3 2 2 2 2 2 1 1 1 1 1 2 3
4 3 3 9 10 11 8 8 8 12 13 5 4 5 5 5 4 5 5 4 4 4 3 4 4 3 3 3 2 2 2 2 2 2 2 2 2 1 2 2 2 2 2 3
1 1 7 8 2 6 7 8 8 8 7 5 6 5 4 4 5 6 5 4 4 3 3 3 3 2 2 2 2 2 3 3 3 2 2 2 2 2 2 2 2 3 3 3
2 3 9 8 3 4 5 7 6 9 8 5 3 3 5 4 5 6 6 5 4 4 3 3 3 2 2 2 2 3 3 3 3 3 3 3 3 3 3 2 2 3 3 3
3 3 7 6 2 2 2 6 4 5 6 4 1 2 6 3 3 4 3 3 3 2 2 2 2 2 2 3 3 4 4 4 3 3 4 4 4 3 2 2 3 3 3 3
4 6 9 6 1 3 3 7 2 3 4 4 5 6 5 4 3 3 3 3 2 2 2 3 2 2 3 3 4 4 3 3 3 3 3 4 3 3 2 2 2 2 3 3
4 5 10 2 4 6 7 2 2 2 3 4 6 6 5 5 4 3 3 3 2 2 3 2 2 2 3 4 4 3 2 3 3 3 3 2 2 2 2 2 2 2 3 3
9 8 5 4 6 5 2 4 4 3 4 4 5 5 5 4 4 3 3 3 2 2 3 3 2 2 4 4 2 2 2 2 2 2 2 2 2 2 2 2 2 3 2 3
6 8 6 6 6 5 4 5 5 4 4 3 5 5 4 4 4 3 3 3 2 2 3 3 3 3 3 3 2 2 2 2 2 2 2 2 2 2 2 3 3 3 3 3
7 8 6 6 6 6 5 4 4 3 3 4 4 4 4 4 4 4 3 3 2 3 4 4 3 3 3 2 2 2 2 2 2 2 2 2 2 3 3 4 4 4 4 3
8 7 6 6 4 4 4 4 4 4 4 3 3 4 4 4 3 3 3 3 3 3 4 4 3 4 3 2 2 2 2 2 2 2 2 2 2 2 4 4 6 6 6 5
7 5 5 5 4 3 3 4 3 3 3 4 3 3 3 3 3 3 3 3 4 4 4 4 3 4 3 3 3 3 3 3 2 2 2 2 2 2 2 3 5 6 6 7
5 3 4 4 3 2 2 2 2 2 2 3 3 2 2 2 3 3 4 4 4 4 4 4 4 5 4 3 3 3 3 3 3 2 2 2 2 2 2 2 3 3 4 6
4 4 5 3 3 2 2 1 2 3 3 3 2 2 2 3 3 4 4 3 3 3 4 3 4 5 3 2 3 3 3 2 2 2 2 2 2 2 2 3 3 3 2 3
3 2 2 3 4 3 2 2 3 4 3 3 3 3 3 3 4 4 3 2 2 4 4 4 5 4 3 3 3 2 3 4 3 2 2 2 2 2 2 2 2 2 3 2
2 3 3 3 4 4 3 4 4 4 4 4 4 3 3 3 3 4 4 3 3 5 5 5 5 4 3 3 3 2 2 2 3 2 2 2 2 2 2 2 2 3 3 3
5 5 4 4 4 4 4 3 3 3 4 4 3 2 3 3 4 5 4 4 4 4 4 4 4 3 3 3 2 2 2 2 2 2 2 2 2 2 2 2 3 3 2 2
2 3 3 3 3 3 3 3 3 3 3 3 3 3 4 4 5 4 4 3 4 5 5 4 5 2 2 3 2 2 2 2 2 2 1 3 2 2 2 2 2 2 2 2
1 2 2 2 2 2 3 3 3 3 3 3 3 3 4 4 4 4 3 4 4 4 4 4 3 3 3 3 3 2 2 2 2 2 2 2 2 2 2 2 2 2 2 2
1 1 2 2 2 2 3 3 3 3 3 2 3 4 5 5 4 3 3 4 4 4 4 5 3 3 3 3 3 2 2 2 2 2 2 2 2 2 2 2 2 2 2 2
2 2 2 2 2 2 3 2 3 3 3 3 3 3 4 4 4 4 4 4 4 5 3 2 2 3 3 2 1 2 2 2 2 2 2 2 2 2 2 2 2 2 2 1
2 2 2 2 2 3 3 2 2 2 3 3 4 4 4 4 3 3 4 3 3 5 3 2 4 5 3 1 1 2 2 2 2 2 2 2 2 2 2 2 2 2 1 1
2 2 2 2 1 2 3 3 3 3 3 4 4 4 3 3 3 3 3 5 6 6 3 4 5 4 2 1 1 2 2 2 2 2 2 2 2 2 2 2 2 1 1 2
2 2 2 2 2 2 3 3 3 3 3 3 3 3 3 3 3 3 3 3 5 5 3 4 5 4 1 0 1 1 1 2 2 2 2 2 2 2 2 2 2 1 1 2
1 2 2 3 2 2 2 2 2 3 2 3 3 3 2 2 3 3 2 3 3 4 2 2 2 2 1 1 1 1 1 2 2 1 2 2 2 2 2 2 2 2 2 2
1 1 2 2 2 2 2 2 2 3 2 2 3 3 3 2 2 2 2 2 2 2 2 1 1 1 1 1 1 1 1 1 1 1 1 2 2 2 2 2 2 2 2 2
Wind_Direction
250 258 238 242 235 212 212 214 222 246 249 264 265 258 263 266 274 276 273 265 249 246 259 269 264 265 262 243 231 214 200 206 220 226 224 214 217 213 209 207 215 210 218 225
266 254 247 262 249 228 230 231 238 258 267 262 261 259 261 257 253 258 260 259 258 255 259 265 260 257 266 245 235 216 211 222 226 221 218 216 222 216 208 214 222 215 222 225
264 282 311 266 231 210 214 213 204 232 249 260 259 247 242 250 255 255 257 255 252 252 253 258 255 245 248 245 230 216 221 230 231 224 229 237 232 221 218 219 220 227 233 229
262 0 248 250 220 194 214 238 225 243 260 254 248 262 256 242 244 257 259 254 253 254 261 262 253 246 253 242 225 223 228 234 233 222 230 236 229 231 233 225 225 234 239 236
185 245 274 287 242 181 199 261 228 235 256 266 285 317 283 249 232 240 246 244 243 244 248 257 259 249 237 230 225 228 234 236 232 219 221 226 232 238 235 225 237 236 235 232
185 222 249 258 247 181 130 280 251 213 238 241 172 271 273 275 258 262 264 255 253 259 260 259 260 228 217 232 231 237 240 238 230 219 216 222 229 232 231 227 238 244 250 240
211 237 262 259 221 125 178 255 282 216 234 218 215 232 266 291 290 273 274 272 262 252 256 252 244 206 224 238 242 243 243 238 231 221 219 222 225 225 223 233 241 246 256 256
184 220 255 211 146 191 226 273 280 262 248 237 244 263 278 284 286 287 289 288 272 259 266 260 228 208 238 252 254 249 239 233 233 226 225 223 214 227 221 214 229 244 250 263
200 221 250 199 216 240 249 263 266 258 261 247 253 262 270 276 280 280 273 274 269 258 273 276 243 218 239 258 258 247 238 238 238 234 226 215 207 217 223 215 228 243 243 256
251 262 258 251 253 262 254 252 260 257 261 251 250 259 266 271 279 281 281 271 272 265 266 275 268 255 248 260 257 232 235 243 236 227 236 230 222 214 218 221 228 237 239 247
256 271 286 269 244 251 258 264 271 277 267 251 244 258 257 264 271 275 281 279 267 256 258 267 276 273 266 254 227 232 239 239 236 229 226 236 238 229 229 227 227 231 234 233
236 236 228 256 256 254 252 260 264 269 276 264 238 253 261 266 268 270 274 277 274 270 265 268 273 272 263 248 224 221 240 237 233 228 231 237 250 274 265 256 260 258 257 257
245 254 242 263 276 258 245 262 269 259 258 275 268 250 252 266 276 273 274 270 264 264 261 263 269 271 270 259 235 223 231 238 235 233 237 242 244 252 276 283 270 265 264 265
252 254 264 258 262 267 258 277 291 296 287 275 274 276 265 272 282 278 274 271 267 266 265 262 263 267 265 253 239 233 233 241 239 228 232 239 238 240 247 261 277 281 271 269
252 236 239 265 284 291 288 293 306 303 301 302 295 283 273 272 277 279 283 288 283 274 269 266 266 270 266 246 237 231 235 236 230 229 230 236 239 240 245 250 259 273 288 281
273 263 245 255 267 278 283 269 269 282 288 288 290 283 275 273 281 289 288 277 268 274 274 269 267 270 263 242 242 237 238 249 244 228 226 232 239 240 243 247 252 254 259 268
226 253 249 257 264 270 263 254 253 267 280 281 279 284 288 290 294 293 290 280 266 268 269 265 266 274 265 243 232 238 236 240 244 235 228 229 233 241 243 242 249 256 259 261
228 236 235 235 246 260 270 270 265 269 271 273 283 288 284 277 278 285 292 297 296 292 281 268 265 265 255 244 233 232 229 230 228 228 233 236 241 240 239 245 250 257 269 269
248 249 254 248 246 246 257 266 269 270 273 276 277 275 273 272 274 280 285 290 290 291 289 283 288 275 254 246 243 220 219 225 234 238 236 243 247 241 242 246 251 254 257 259
270 267 267 273 269 252 258 269 272 274 273 267 271 279 285 284 282 280 279 271 264 266 280 286 276 258 251 247 241 213 213 216 218 223 230 237 241 247 248 248 251 258 260 257
282 277 271 272 281 275 262 260 261 271 278 266 259 267 275 282 283 277 277 283 284 280 279 285 280 267 256 246 234 210 206 209 214 218 225 233 240 246 249 252 256 258 259 263
289 285 280 277 279 289 287 270 261 268 279 278 272 272 278 283 285 277 257 258 279 297 295 273 266 268 265 253 212 198 203 211 217 220 226 230 231 237 244 248 251 256 256 257
285 283 282 281 279 285 298 292 273 266 268 271 272 272 269 268 266 266 281 283 284 295 297 279 282 281 273 226 204 203 208 213 218 223 225 226 229 234 239 244 250 252 254 260
294 298 295 296 298 301 301 298 290 279 274 275 270 265 264 274 275 254 258 292 302 304 297 297 301 299 296 217 213 216 214 216 220 224 223 224 226 231 236 241 251 257 257 262
291 293 296 300 294 282 281 296 305 300 299 295 290 282 267 249 253 275 284 285 295 304 299 305 310 313 314 258 231 230 227 225 226 222 217 222 228 232 236 238 240 244 248 255
280 281 278 273 271 277 284 288 290 293 299 303 304 298 292 281 271 276 283 287 293 304 306 301 308 311 292 266 256 255 252 256 256 245 237 237 237 237 240 242 242 243 248 252
293 294 301 306 299 285 279 277 280 285 283 282 290 294 297 297 296 297 299 304 310 313 307 309 313 300 283 273 268 262 260 261 259 250 244 243 243 243 243 240 244 248 251 253